Skip Page Navigation
NASA JPL Caltech
NASA Logo - Jet Propulsion Laboratory + View the NASA Portal
+ Center for Near-Earth Object Studies
JPL Home Earth Solar System Stars & Galaxies Technology
JPL Solar System Dynamics
BODIES ORBITS EPHEMERIDES TOOLS PHYSICAL DATA DISCOVERY FAQ SITE MAP
JPL Small-Body Database Browser
Search: [ help ]  
187016 (2004 UT2)
Classification: Main-belt Asteroid          SPK-ID: 2187016
Ephemeris | Orbit Diagram | Orbital Elements | Mission Design | Physical Parameters | Discovery Circumstances | Close-Approach Data ]

[ hide orbit diagram ]

For accurate long-term ephemerides, please instead use our Horizons system.This orbit viewer was implemented using two-body methods, and hence should not be used for determining accurate long-term trajectories (over several years or decades) or planetary encounter circumstances.


Orbital Elements at Epoch 2459200.5 (2020-Dec-17.0) TDB
Reference: JPL 24 (heliocentric ecliptic J2000)
 Element Value Uncertainty (1-sigma)   Units 
e .09262448511975424 4.328e-08  
a 3.178054291510264 4.0902e-08 au
q 2.8836886490765 1.4124e-07 au
i 13.47624936394294 4.8111e-06 deg
node 156.1364813431888 2.1641e-05 deg
peri 175.8628194894727 3.5507e-05 deg
M 351.1384821713337 3.0551e-05 deg
tp 2459251.438483322121
(2021-Feb-05.93848332)
0.00017606 TDB
period 2069.380703229213
5.67
3.995e-05
1.094e-07
d
yr
n .1739650898639528 3.3585e-09 deg/d
Q 3.472419933944027 4.4691e-08 au
  Orbit Determination Parameters
   # obs. used (total)      537  
   data-arc span      8007 days (21.92 yr)  
   first obs. used      1998-08-17  
   last obs. used      2020-07-19  
   planetary ephem.      DE441  
   SB-pert. ephem.      SB441-N16  
   condition code      0  
   norm. resid. RMS      .5998  
   source      ORB  
   producer      Otto Matic  
   solution date      2021-Apr-13 21:53:41  

Additional Information
 Earth MOID = 1.87168 au 
 Jupiter MOID = 1.91933 au 
 T_jup = 3.151 
[ show covariance matrix ]

Ephemeris | Orbit Diagram | Orbital Elements | Mission Design | Physical Parameters | Discovery Circumstances | Close-Approach Data ]

Physical Parameter Table
Parameter Symbol Value Units Sigma Reference Notes
absolute magnitude H 14.81   n/a E2021B55  

187016 (2004 UT2)          Discovered 2004-Oct-18 by LINEAR at Socorro
Reference: 20080520/Numbers.arcLast Updated: 2008-05-22

[ show close-approach data ]
Ephemeris | Orbit Diagram | Orbital Elements | Mission Design | Physical Parameters | Discovery Circumstances | Close-Approach Data ]
ABOUT SSD CREDITS/AWARDS PRIVACY/COPYRIGHT GLOSSARY LINKS
FirstGov 2021-May-09 17:56 UT
(server date/time)  
NASA Home Page
Site Manager:   Ryan S. Park
Webmaster  Alan B. Chamberlin